Simultaneous Nadir Overpasses (SNOs) Predictions

Prediction of SNOs between METOP-B and NOAA-19 Satellite Orbit:

Table of predicted SNOs for the next 14.0 days since TLE Epoch: 8/14/2021
Index Date (METOP-B) Time (METOP-B) Lat,Lon (METOP-B) SZA (METOP-B ) Date (NOAA-19) Time (NOAA-19) Lat,Lon (NOAA-19) SZA (NOAA-19 ) Distance(km) Time Diff (sec)
1 08/17/2021 00:40:03 -80.61, 19.84 111.63 08/17/2021 00:38:53 -80.59, 19.84 111.66 1.81 70
2 08/17/2021 01:30:44 80.61,-172.86 68.39 08/17/2021 01:29:49 80.60,-172.95 68.35 2.12 55
3 08/17/2021 02:21:25 -80.60, -5.64 111.62 08/17/2021 02:20:53 -80.59, -5.56 111.64 1.83 32
4 08/17/2021 03:12:06 80.60, 161.66 68.39 08/17/2021 03:11:49 80.59, 161.64 68.38 0.79 17
5 08/17/2021 04:02:47 -80.59, -31.12 111.62 08/17/2021 04:02:53 -80.59, -30.97 111.61 2.72 6
6 08/17/2021 04:53:28 80.59, 136.18 68.39 08/17/2021 04:53:49 80.59, 136.24 68.41 1.06 21
7 08/17/2021 05:44:09 -80.58, -56.59 111.61 08/17/2021 05:44:54 -80.60, -56.73 111.60 2.94 45



Historial Predications of SNOs between METOP-B and NOAA-19
